Year,Month,Day,Hour,Minute,Value (Times are PST for insolation in W/m^2)
2016,11,03,00,00,0.00
2016,11,03,00,01,0.00
2016,11,03,00,02,0.00
2016,11,03,00,03,0.00
2016,11,03,00,04,0.00
2016,11,03,00,05,0.00
2016,11,03,00,06,0.00
2016,11,03,00,07,0.00
2016,11,03,00,08,0.00
2016,11,03,00,09,0.00
2016,11,03,00,10,0.00
2016,11,03,00,11,0.00
2016,11,03,00,12,0.00
2016,11,03,00,13,0.00
2016,11,03,00,14,0.00
2016,11,03,00,15,0.00
2016,11,03,00,16,0.00
2016,11,03,00,17,0.00
2016,11,03,00,18,0.00
2016,11,03,00,19,0.00
2016,11,03,00,20,0.00
2016,11,03,00,21,0.00
2016,11,03,00,22,0.00
2016,11,03,00,23,0.00
2016,11,03,00,24,0.00
2016,11,03,00,25,0.00
2016,11,03,00,26,0.00
2016,11,03,00,27,0.00
2016,11,03,00,28,0.00
2016,11,03,00,29,0.00
2016,11,03,00,30,0.00
2016,11,03,00,31,0.00
2016,11,03,00,32,0.00
2016,11,03,00,33,0.00
2016,11,03,00,34,0.00
2016,11,03,00,35,0.00
2016,11,03,00,36,0.00
2016,11,03,00,37,0.00
2016,11,03,00,38,0.00
2016,11,03,00,39,0.00
2016,11,03,00,40,0.00
2016,11,03,00,41,0.00
2016,11,03,00,42,0.00
2016,11,03,00,43,0.00
2016,11,03,00,44,0.00
2016,11,03,00,45,0.00
2016,11,03,00,46,0.00
2016,11,03,00,47,0.00
2016,11,03,00,48,0.00
2016,11,03,00,49,0.00
2016,11,03,00,50,0.00
2016,11,03,00,51,0.00
2016,11,03,00,52,0.00
2016,11,03,00,53,0.00
2016,11,03,00,54,0.00
2016,11,03,00,55,0.00
2016,11,03,00,56,0.00
2016,11,03,00,57,0.00
2016,11,03,00,58,0.00
2016,11,03,00,59,0.00
2016,11,03,01,00,0.00
2016,11,03,01,01,0.00
2016,11,03,01,02,0.00
2016,11,03,01,03,0.00
2016,11,03,01,04,0.00
2016,11,03,01,05,0.00
2016,11,03,01,06,0.00
2016,11,03,01,07,0.00
2016,11,03,01,08,0.00
2016,11,03,01,09,0.00
2016,11,03,01,10,0.00
2016,11,03,01,11,0.00
2016,11,03,01,12,0.00
2016,11,03,01,13,0.00
2016,11,03,01,14,0.00
2016,11,03,01,15,0.00
2016,11,03,01,16,0.00
2016,11,03,01,17,0.00
2016,11,03,01,18,0.00
2016,11,03,01,19,0.00
2016,11,03,01,20,0.00
2016,11,03,01,21,0.00
2016,11,03,01,22,0.00
2016,11,03,01,23,0.00
2016,11,03,01,24,0.00
2016,11,03,01,25,0.00
2016,11,03,01,26,0.00
2016,11,03,01,27,0.00
2016,11,03,01,28,0.00
2016,11,03,01,29,0.00
2016,11,03,01,30,0.00
2016,11,03,01,31,0.00
2016,11,03,01,32,0.00
2016,11,03,01,33,0.00
2016,11,03,01,34,0.00
2016,11,03,01,35,0.00
2016,11,03,01,36,0.00
2016,11,03,01,37,0.00
2016,11,03,01,38,0.00
2016,11,03,01,39,0.00
2016,11,03,01,40,0.00
2016,11,03,01,41,0.00
2016,11,03,01,42,0.00
2016,11,03,01,43,0.00
2016,11,03,01,44,0.00
2016,11,03,01,45,0.00
2016,11,03,01,46,0.00
2016,11,03,01,47,0.00
2016,11,03,01,48,0.00
2016,11,03,01,49,0.00
2016,11,03,01,50,0.00
2016,11,03,01,51,0.00
2016,11,03,01,52,0.00
2016,11,03,01,53,0.00
2016,11,03,01,54,0.00
2016,11,03,01,55,0.00
2016,11,03,01,56,0.00
2016,11,03,01,57,0.00
2016,11,03,01,58,0.00
2016,11,03,01,59,0.00
2016,11,03,02,00,0.00
2016,11,03,02,01,0.00
2016,11,03,02,02,0.00
2016,11,03,02,03,0.00
2016,11,03,02,04,0.00
2016,11,03,02,05,0.00
2016,11,03,02,06,0.00
2016,11,03,02,07,0.00
2016,11,03,02,08,0.00
2016,11,03,02,09,0.00
2016,11,03,02,10,0.00
2016,11,03,02,11,0.00
2016,11,03,02,12,0.00
2016,11,03,02,13,0.00
2016,11,03,02,14,0.00
2016,11,03,02,15,0.00
2016,11,03,02,16,0.00
2016,11,03,02,17,0.00
2016,11,03,02,18,0.00
2016,11,03,02,19,0.00
2016,11,03,02,20,0.00
2016,11,03,02,21,0.00
2016,11,03,02,22,0.00
2016,11,03,02,23,0.00
2016,11,03,02,24,0.00
2016,11,03,02,25,0.00
2016,11,03,02,26,0.00
2016,11,03,02,27,0.00
2016,11,03,02,28,0.00
2016,11,03,02,29,0.00
2016,11,03,02,30,0.00
2016,11,03,02,31,0.00
2016,11,03,02,32,0.00
2016,11,03,02,33,0.00
2016,11,03,02,34,0.00
2016,11,03,02,35,0.00
2016,11,03,02,36,0.00
2016,11,03,02,37,0.00
2016,11,03,02,38,0.00
2016,11,03,02,39,0.00
2016,11,03,02,40,0.00
2016,11,03,02,41,0.00
2016,11,03,02,42,0.00
2016,11,03,02,43,0.00
2016,11,03,02,44,0.00
2016,11,03,02,45,0.00
2016,11,03,02,46,0.00
2016,11,03,02,47,0.00
2016,11,03,02,48,0.00
2016,11,03,02,49,0.00
2016,11,03,02,50,0.00
2016,11,03,02,51,0.00
2016,11,03,02,52,0.00
2016,11,03,02,53,0.00
2016,11,03,02,54,0.00
2016,11,03,02,55,0.00
2016,11,03,02,56,0.00
2016,11,03,02,57,0.00
2016,11,03,02,58,0.00
2016,11,03,02,59,0.00
2016,11,03,03,00,0.00
2016,11,03,03,01,0.00
2016,11,03,03,02,0.00
2016,11,03,03,03,0.00
2016,11,03,03,04,0.00
2016,11,03,03,05,0.00
2016,11,03,03,06,0.00
2016,11,03,03,07,0.00
2016,11,03,03,08,0.00
2016,11,03,03,09,0.00
2016,11,03,03,10,0.00
2016,11,03,03,11,0.00
2016,11,03,03,12,0.00
2016,11,03,03,13,0.00
2016,11,03,03,14,0.00
2016,11,03,03,15,0.00
2016,11,03,03,16,0.00
2016,11,03,03,17,0.00
2016,11,03,03,18,0.00
2016,11,03,03,19,0.00
2016,11,03,03,20,0.00
2016,11,03,03,21,0.00
2016,11,03,03,22,0.00
2016,11,03,03,23,0.00
2016,11,03,03,24,0.00
2016,11,03,03,25,0.00
2016,11,03,03,26,0.00
2016,11,03,03,27,0.00
2016,11,03,03,28,0.00
2016,11,03,03,29,0.00
2016,11,03,03,30,0.00
2016,11,03,03,31,0.00
2016,11,03,03,32,0.00
2016,11,03,03,33,0.00
2016,11,03,03,34,0.00
2016,11,03,03,35,0.00
2016,11,03,03,36,0.00
2016,11,03,03,37,0.00
2016,11,03,03,38,0.00
2016,11,03,03,39,0.00
2016,11,03,03,40,0.00
2016,11,03,03,41,0.00
2016,11,03,03,42,0.00
2016,11,03,03,43,0.00
2016,11,03,03,44,0.00
2016,11,03,03,45,0.00
2016,11,03,03,46,0.00
2016,11,03,03,47,0.00
2016,11,03,03,48,0.00
2016,11,03,03,49,0.00
2016,11,03,03,50,0.00
2016,11,03,03,51,0.00
2016,11,03,03,52,0.00
2016,11,03,03,53,0.00
2016,11,03,03,54,0.00
2016,11,03,03,55,0.00
2016,11,03,03,56,0.00
2016,11,03,03,57,0.00
2016,11,03,03,58,0.00
2016,11,03,03,59,0.00
2016,11,03,04,00,0.00
2016,11,03,04,01,0.00
2016,11,03,04,02,0.00
2016,11,03,04,03,0.00
2016,11,03,04,04,0.00
2016,11,03,04,05,0.00
2016,11,03,04,06,0.00
2016,11,03,04,07,0.00
2016,11,03,04,08,0.00
2016,11,03,04,09,0.00
2016,11,03,04,10,0.00
2016,11,03,04,11,0.00
2016,11,03,04,12,0.00
2016,11,03,04,13,0.00
2016,11,03,04,14,0.00
2016,11,03,04,15,0.00
2016,11,03,04,16,0.00
2016,11,03,04,17,0.00
2016,11,03,04,18,0.00
2016,11,03,04,19,0.00
2016,11,03,04,20,0.00
2016,11,03,04,21,0.00
2016,11,03,04,22,0.00
2016,11,03,04,23,0.00
2016,11,03,04,24,0.00
2016,11,03,04,25,0.00
2016,11,03,04,26,0.00
2016,11,03,04,27,0.00
2016,11,03,04,28,0.00
2016,11,03,04,29,0.00
2016,11,03,04,30,0.00
2016,11,03,04,31,0.00
2016,11,03,04,32,0.00
2016,11,03,04,33,0.00
2016,11,03,04,34,0.00
2016,11,03,04,35,0.00
2016,11,03,04,36,0.00
2016,11,03,04,37,0.00
2016,11,03,04,38,0.00
2016,11,03,04,39,0.00
2016,11,03,04,40,0.00
2016,11,03,04,41,0.00
2016,11,03,04,42,0.00
2016,11,03,04,43,0.00
2016,11,03,04,44,0.00
2016,11,03,04,45,0.00
2016,11,03,04,46,0.00
2016,11,03,04,47,0.00
2016,11,03,04,48,0.00
2016,11,03,04,49,0.00
2016,11,03,04,50,0.00
2016,11,03,04,51,0.00
2016,11,03,04,52,0.00
2016,11,03,04,53,0.00
2016,11,03,04,54,0.00
2016,11,03,04,55,0.00
2016,11,03,04,56,0.00
2016,11,03,04,57,0.00
2016,11,03,04,58,0.00
2016,11,03,04,59,0.00
2016,11,03,05,00,0.00
2016,11,03,05,01,0.00
2016,11,03,05,02,0.00
2016,11,03,05,03,0.00
2016,11,03,05,04,0.00
2016,11,03,05,05,0.00
2016,11,03,05,06,0.00
2016,11,03,05,07,0.00
2016,11,03,05,08,0.00
2016,11,03,05,09,0.00
2016,11,03,05,10,0.00
2016,11,03,05,11,0.00
2016,11,03,05,12,0.00
2016,11,03,05,13,0.00
2016,11,03,05,14,0.00
2016,11,03,05,15,0.00
2016,11,03,05,16,0.00
2016,11,03,05,17,0.00
2016,11,03,05,18,0.00
2016,11,03,05,19,0.00
2016,11,03,05,20,0.00
2016,11,03,05,21,0.00
2016,11,03,05,22,0.00
2016,11,03,05,23,0.00
2016,11,03,05,24,0.00
2016,11,03,05,25,0.00
2016,11,03,05,26,0.00
2016,11,03,05,27,0.00
2016,11,03,05,28,0.00
2016,11,03,05,29,0.00
2016,11,03,05,30,0.00
2016,11,03,05,31,0.00
2016,11,03,05,32,0.00
2016,11,03,05,33,0.00
2016,11,03,05,34,0.00
2016,11,03,05,35,0.00
2016,11,03,05,36,0.00
2016,11,03,05,37,0.00
2016,11,03,05,38,0.00
2016,11,03,05,39,0.00
2016,11,03,05,40,0.00
2016,11,03,05,41,0.00
2016,11,03,05,42,0.00
2016,11,03,05,43,0.00
2016,11,03,05,44,0.00
2016,11,03,05,45,0.00
2016,11,03,05,46,0.00
2016,11,03,05,47,0.00
2016,11,03,05,48,0.00
2016,11,03,05,49,0.00
2016,11,03,05,50,0.00
2016,11,03,05,51,0.00
2016,11,03,05,52,0.00
2016,11,03,05,53,0.00
2016,11,03,05,54,0.00
2016,11,03,05,55,0.00
2016,11,03,05,56,0.00
2016,11,03,05,57,0.00
2016,11,03,05,58,0.00
2016,11,03,05,59,0.00
2016,11,03,06,00,0.00
2016,11,03,06,01,0.00
2016,11,03,06,02,0.00
2016,11,03,06,03,0.00
2016,11,03,06,04,0.00
2016,11,03,06,05,0.00
2016,11,03,06,06,0.00
2016,11,03,06,07,0.00
2016,11,03,06,08,0.00
2016,11,03,06,09,0.00
2016,11,03,06,10,0.00
2016,11,03,06,11,0.00
2016,11,03,06,12,0.00
2016,11,03,06,13,0.00
2016,11,03,06,14,0.00
2016,11,03,06,15,0.00
2016,11,03,06,16,0.00
2016,11,03,06,17,0.00
2016,11,03,06,18,0.00
2016,11,03,06,19,0.00
2016,11,03,06,20,0.00
2016,11,03,06,21,0.00
2016,11,03,06,22,0.00
2016,11,03,06,23,0.00
2016,11,03,06,24,0.00
2016,11,03,06,25,0.00
2016,11,03,06,26,0.00
2016,11,03,06,27,0.00
2016,11,03,06,28,0.00
2016,11,03,06,29,0.00
2016,11,03,06,30,0.00
2016,11,03,06,31,0.00
2016,11,03,06,32,0.00
2016,11,03,06,33,0.00
2016,11,03,06,34,0.00
2016,11,03,06,35,0.00
2016,11,03,06,36,0.00
2016,11,03,06,37,0.00
2016,11,03,06,38,0.00
2016,11,03,06,39,0.00
2016,11,03,06,40,0.00
2016,11,03,06,41,0.00
2016,11,03,06,42,0.00
2016,11,03,06,43,0.00
2016,11,03,06,44,0.00
2016,11,03,06,45,0.00
2016,11,03,06,46,0.00
2016,11,03,06,47,0.00
2016,11,03,06,48,0.00
2016,11,03,06,49,0.00
2016,11,03,06,50,0.00
2016,11,03,06,51,0.00
2016,11,03,06,52,0.00
2016,11,03,06,53,0.00
2016,11,03,06,54,0.00
2016,11,03,06,55,0.00
2016,11,03,06,56,0.00
2016,11,03,06,57,0.00
2016,11,03,06,58,0.00
2016,11,03,06,59,0.00
2016,11,03,07,00,0.00
2016,11,03,07,01,0.00
2016,11,03,07,02,0.00
2016,11,03,07,03,0.00
2016,11,03,07,04,0.00
2016,11,03,07,05,0.00
2016,11,03,07,06,0.00
2016,11,03,07,07,0.00
2016,11,03,07,08,0.00
2016,11,03,07,09,0.00
2016,11,03,07,10,0.00
2016,11,03,07,11,0.00
2016,11,03,07,12,0.00
2016,11,03,07,13,0.00
2016,11,03,07,14,0.00
2016,11,03,07,15,0.00
2016,11,03,07,16,0.00
2016,11,03,07,17,0.00
2016,11,03,07,18,0.00
2016,11,03,07,19,0.00
2016,11,03,07,20,0.00
2016,11,03,07,21,0.00
2016,11,03,07,22,0.00
2016,11,03,07,23,0.00
2016,11,03,07,24,0.00
2016,11,03,07,25,0.00
2016,11,03,07,26,0.00
2016,11,03,07,27,0.00
2016,11,03,07,28,0.00
2016,11,03,07,29,0.00
2016,11,03,07,30,0.00
2016,11,03,07,31,0.00
2016,11,03,07,32,0.00
2016,11,03,07,33,0.00
2016,11,03,07,34,0.00
2016,11,03,07,35,0.00
2016,11,03,07,36,0.00
2016,11,03,07,37,0.00
2016,11,03,07,38,0.00
2016,11,03,07,39,0.00
2016,11,03,07,40,0.00
2016,11,03,07,41,0.00
2016,11,03,07,42,0.00
2016,11,03,07,43,0.00
2016,11,03,07,44,0.00
2016,11,03,07,45,0.00
2016,11,03,07,46,0.00
2016,11,03,07,47,0.00
2016,11,03,07,48,0.00
2016,11,03,07,49,0.00
2016,11,03,07,50,0.00
2016,11,03,07,51,0.00
2016,11,03,07,52,0.00
2016,11,03,07,53,0.00
2016,11,03,07,54,0.00
2016,11,03,07,55,0.00
2016,11,03,07,56,0.00
2016,11,03,07,57,0.00
2016,11,03,07,58,0.00
2016,11,03,07,59,0.00
2016,11,03,08,00,0.00
2016,11,03,08,01,0.00
2016,11,03,08,02,0.00
2016,11,03,08,03,0.00
2016,11,03,08,04,0.00
2016,11,03,08,05,2.00
2016,11,03,08,06,5.00
2016,11,03,08,07,5.00
2016,11,03,08,08,5.00
2016,11,03,08,09,5.00
2016,11,03,08,10,5.50
2016,11,03,08,11,7.00
2016,11,03,08,12,7.00
2016,11,03,08,13,8.40
2016,11,03,08,14,9.00
2016,11,03,08,15,9.30
2016,11,03,08,16,11.00
2016,11,03,08,17,11.00
2016,11,03,08,18,11.00
2016,11,03,08,19,11.70
2016,11,03,08,20,12.00
2016,11,03,08,21,12.00
2016,11,03,08,22,12.00
2016,11,03,08,23,13.00
2016,11,03,08,24,14.00
2016,11,03,08,25,14.00
2016,11,03,08,26,14.10
2016,11,03,08,27,16.00
2016,11,03,08,28,16.00
2016,11,03,08,29,16.00
2016,11,03,08,30,16.00
2016,11,03,08,31,17.60
2016,11,03,08,32,18.00
2016,11,03,08,33,18.00
2016,11,03,08,34,18.00
2016,11,03,08,35,18.50
2016,11,03,08,36,20.30
2016,11,03,08,37,22.60
2016,11,03,08,38,25.00
2016,11,03,08,39,26.90
2016,11,03,08,40,30.80
2016,11,03,08,41,34.60
2016,11,03,08,42,38.30
2016,11,03,08,43,39.90
2016,11,03,08,44,44.00
2016,11,03,08,45,46.20
2016,11,03,08,46,48.50
2016,11,03,08,47,52.70
2016,11,03,08,48,56.70
2016,11,03,08,49,61.50
2016,11,03,08,50,63.30
2016,11,03,08,51,65.00
2016,11,03,08,52,66.70
2016,11,03,08,53,70.70
2016,11,03,08,54,72.00
2016,11,03,08,55,75.50
2016,11,03,08,56,79.30
2016,11,03,08,57,82.60
2016,11,03,08,58,86.90
2016,11,03,08,59,89.70
2016,11,03,09,00,93.90
2016,11,03,09,01,96.80
2016,11,03,09,02,97.40
2016,11,03,09,03,93.70
2016,11,03,09,04,92.00
2016,11,03,09,05,100.30
2016,11,03,09,06,90.80
2016,11,03,09,07,95.40
2016,11,03,09,08,37.60
2016,11,03,09,09,46.30
2016,11,03,09,10,61.30
2016,11,03,09,11,65.00
2016,11,03,09,12,65.00
2016,11,03,09,13,82.50
2016,11,03,09,14,85.10
2016,11,03,09,15,65.20
2016,11,03,09,16,54.70
2016,11,03,09,17,71.70
2016,11,03,09,18,79.00
2016,11,03,09,19,82.00
2016,11,03,09,20,94.70
2016,11,03,09,21,99.20
2016,11,03,09,22,109.50
2016,11,03,09,23,114.00
2016,11,03,09,24,84.80
2016,11,03,09,25,73.40
2016,11,03,09,26,56.00
2016,11,03,09,27,79.50
2016,11,03,09,28,117.00
2016,11,03,09,29,102.70
2016,11,03,09,30,137.80
2016,11,03,09,31,175.90
2016,11,03,09,32,139.90
2016,11,03,09,33,138.30
2016,11,03,09,34,117.40
2016,11,03,09,35,81.00
2016,11,03,09,36,98.30
2016,11,03,09,37,97.50
2016,11,03,09,38,95.00
2016,11,03,09,39,95.00
2016,11,03,09,40,103.20
2016,11,03,09,41,122.30
2016,11,03,09,42,86.40
2016,11,03,09,43,144.50
2016,11,03,09,44,107.70
2016,11,03,09,45,161.80
2016,11,03,09,46,185.40
2016,11,03,09,47,110.10
2016,11,03,09,48,96.70
2016,11,03,09,49,167.00
2016,11,03,09,50,163.90
2016,11,03,09,51,167.60
2016,11,03,09,52,159.90
2016,11,03,09,53,174.00
2016,11,03,09,54,212.70
2016,11,03,09,55,208.60
2016,11,03,09,56,185.00
2016,11,03,09,57,185.00
2016,11,03,09,58,155.70
2016,11,03,09,59,90.30
2016,11,03,10,00,81.10
2016,11,03,10,01,136.60
2016,11,03,10,02,135.00
2016,11,03,10,03,135.00
2016,11,03,10,04,135.00
2016,11,03,10,05,173.00
2016,11,03,10,06,113.70
2016,11,03,10,07,147.00
2016,11,03,10,08,131.30
2016,11,03,10,09,106.50
2016,11,03,10,10,104.90
2016,11,03,10,11,88.50
2016,11,03,10,12,85.30
2016,11,03,10,13,93.00
2016,11,03,10,14,116.30
2016,11,03,10,15,157.70
2016,11,03,10,16,165.00
2016,11,03,10,17,120.70
2016,11,03,10,18,125.50
2016,11,03,10,19,193.70
2016,11,03,10,20,206.90
2016,11,03,10,21,162.20
2016,11,03,10,22,119.40
2016,11,03,10,23,117.30
2016,11,03,10,24,134.40
2016,11,03,10,25,211.00
2016,11,03,10,26,244.10
2016,11,03,10,27,230.90
2016,11,03,10,28,198.30
2016,11,03,10,29,161.40
2016,11,03,10,30,157.20
2016,11,03,10,31,170.70
2016,11,03,10,32,230.00
2016,11,03,10,33,215.80
2016,11,03,10,34,243.30
2016,11,03,10,35,254.00
2016,11,03,10,36,266.60
2016,11,03,10,37,296.20
2016,11,03,10,38,333.00
2016,11,03,10,39,311.80
2016,11,03,10,40,301.00
2016,11,03,10,41,285.50
2016,11,03,10,42,322.30
2016,11,03,10,43,344.20
2016,11,03,10,44,344.60
2016,11,03,10,45,346.00
2016,11,03,10,46,347.70
2016,11,03,10,47,347.00
2016,11,03,10,48,320.10
2016,11,03,10,49,334.70
2016,11,03,10,50,314.30
2016,11,03,10,51,301.00
2016,11,03,10,52,341.50
2016,11,03,10,53,324.90
2016,11,03,10,54,310.50
2016,11,03,10,55,289.20
2016,11,03,10,56,272.60
2016,11,03,10,57,274.90
2016,11,03,10,58,236.30
2016,11,03,10,59,260.60
2016,11,03,11,00,311.00
2016,11,03,11,01,293.50
2016,11,03,11,02,266.30
2016,11,03,11,03,248.00
2016,11,03,11,04,243.90
2016,11,03,11,05,263.30
2016,11,03,11,06,264.10
2016,11,03,11,07,275.00
2016,11,03,11,08,254.10
2016,11,03,11,09,269.00
2016,11,03,11,10,265.80
2016,11,03,11,11,277.70
2016,11,03,11,12,246.90
2016,11,03,11,13,218.70
2016,11,03,11,14,198.80
2016,11,03,11,15,116.60
2016,11,03,11,16,87.80
2016,11,03,11,17,95.40
2016,11,03,11,18,123.50
2016,11,03,11,19,178.50
2016,11,03,11,20,197.70
2016,11,03,11,21,213.60
2016,11,03,11,22,168.30
2016,11,03,11,23,189.50
2016,11,03,11,24,246.00
2016,11,03,11,25,294.50
2016,11,03,11,26,359.60
2016,11,03,11,27,380.80
2016,11,03,11,28,381.00
2016,11,03,11,29,381.50
2016,11,03,11,30,383.00
2016,11,03,11,31,384.10
2016,11,03,11,32,385.00
2016,11,03,11,33,385.00
2016,11,03,11,34,385.30
2016,11,03,11,35,387.00
2016,11,03,11,36,387.00
2016,11,03,11,37,387.00
2016,11,03,11,38,387.70
2016,11,03,11,39,388.00
2016,11,03,11,40,390.00
2016,11,03,11,41,390.00
2016,11,03,11,42,390.90
2016,11,03,11,43,392.00
2016,11,03,11,44,392.00
2016,11,03,11,45,393.80
2016,11,03,11,46,394.00
2016,11,03,11,47,394.60
2016,11,03,11,48,396.50
2016,11,03,11,49,397.00
2016,11,03,11,50,398.50
2016,11,03,11,51,399.10
2016,11,03,11,52,401.00
2016,11,03,11,53,401.00
2016,11,03,11,54,402.00
2016,11,03,11,55,403.00
2016,11,03,11,56,403.00
2016,11,03,11,57,404.00
2016,11,03,11,58,406.00
2016,11,03,11,59,406.00
2016,11,03,12,00,407.10
2016,11,03,12,01,408.00
2016,11,03,12,02,408.00
2016,11,03,12,03,408.20
2016,11,03,12,04,410.00
2016,11,03,12,05,410.40
2016,11,03,12,06,411.00
2016,11,03,12,07,412.30
2016,11,03,12,08,411.30
2016,11,03,12,09,412.90
2016,11,03,12,10,413.50
2016,11,03,12,11,415.00
2016,11,03,12,12,415.00
2016,11,03,12,13,415.00
2016,11,03,12,14,416.70
2016,11,03,12,15,417.10
2016,11,03,12,16,418.50
2016,11,03,12,17,420.00
2016,11,03,12,18,420.00
2016,11,03,12,19,420.00
2016,11,03,12,20,421.70
2016,11,03,12,21,422.00
2016,11,03,12,22,422.00
2016,11,03,12,23,422.90
2016,11,03,12,24,424.00
2016,11,03,12,25,424.00
2016,11,03,12,26,424.00
2016,11,03,12,27,424.80
2016,11,03,12,28,424.30
2016,11,03,12,29,425.00
2016,11,03,12,30,426.20
2016,11,03,12,31,425.60
2016,11,03,12,32,426.80
2016,11,03,12,33,427.00
2016,11,03,12,34,427.00
2016,11,03,12,35,427.00
2016,11,03,12,36,428.20
2016,11,03,12,37,427.50
2016,11,03,12,38,428.90
2016,11,03,12,39,429.00
2016,11,03,12,40,429.00
2016,11,03,12,41,429.00
2016,11,03,12,42,430.30
2016,11,03,12,43,431.00
2016,11,03,12,44,431.00
2016,11,03,12,45,431.00
2016,11,03,12,46,431.00
2016,11,03,12,47,430.00
2016,11,03,12,48,430.30
2016,11,03,12,49,431.80
2016,11,03,12,50,432.00
2016,11,03,12,51,432.00
2016,11,03,12,52,432.00
2016,11,03,12,53,432.00
2016,11,03,12,54,432.00
2016,11,03,12,55,433.70
2016,11,03,12,56,434.00
2016,11,03,12,57,434.00
2016,11,03,12,58,434.00
2016,11,03,12,59,434.00
2016,11,03,13,00,434.00
2016,11,03,13,01,434.00
2016,11,03,13,02,433.70
2016,11,03,13,03,432.60
2016,11,03,13,04,434.00
2016,11,03,13,05,434.00
2016,11,03,13,06,432.50
2016,11,03,13,07,432.10
2016,11,03,13,08,433.70
2016,11,03,13,09,432.00
2016,11,03,13,10,432.90
2016,11,03,13,11,432.80
2016,11,03,13,12,432.00
2016,11,03,13,13,432.00
2016,11,03,13,14,431.80
2016,11,03,13,15,431.00
2016,11,03,13,16,431.50
2016,11,03,13,17,431.40
2016,11,03,13,18,431.00
2016,11,03,13,19,430.80
2016,11,03,13,20,429.00
2016,11,03,13,21,429.00
2016,11,03,13,22,429.00
2016,11,03,13,23,429.00
2016,11,03,13,24,427.50
2016,11,03,13,25,428.90
2016,11,03,13,26,429.00
2016,11,03,13,27,428.20
2016,11,03,13,28,427.00
2016,11,03,13,29,428.40
2016,11,03,13,30,427.30
2016,11,03,13,31,426.70
2016,11,03,13,32,425.00
2016,11,03,13,33,424.60
2016,11,03,13,34,424.00
2016,11,03,13,35,424.00
2016,11,03,13,36,424.00
2016,11,03,13,37,421.70
2016,11,03,13,38,420.00
2016,11,03,13,39,420.00
2016,11,03,13,40,420.00
2016,11,03,13,41,420.00
2016,11,03,13,42,418.30
2016,11,03,13,43,417.00
2016,11,03,13,44,417.00
2016,11,03,13,45,417.00
2016,11,03,13,46,417.00
2016,11,03,13,47,415.50
2016,11,03,13,48,414.90
2016,11,03,13,49,413.00
2016,11,03,13,50,413.00
2016,11,03,13,51,412.10
2016,11,03,13,52,411.00
2016,11,03,13,53,411.00
2016,11,03,13,54,411.00
2016,11,03,13,55,410.00
2016,11,03,13,56,409.30
2016,11,03,13,57,407.00
2016,11,03,13,58,406.00
2016,11,03,13,59,406.00
2016,11,03,14,00,406.00
2016,11,03,14,01,405.50
2016,11,03,14,02,404.00
2016,11,03,14,03,404.00
2016,11,03,14,04,404.00
2016,11,03,14,05,403.20
2016,11,03,14,06,402.80
2016,11,03,14,07,400.50
2016,11,03,14,08,399.00
2016,11,03,14,09,399.00
2016,11,03,14,10,397.70
2016,11,03,14,11,396.20
2016,11,03,14,12,395.80
2016,11,03,14,13,394.00
2016,11,03,14,14,393.20
2016,11,03,14,15,392.00
2016,11,03,14,16,392.00
2016,11,03,14,17,392.00
2016,11,03,14,18,389.80
2016,11,03,14,19,388.00
2016,11,03,14,20,387.60
2016,11,03,14,21,387.00
2016,11,03,14,22,387.00
2016,11,03,14,23,387.00
2016,11,03,14,24,387.00
2016,11,03,14,25,387.00
2016,11,03,14,26,387.00
2016,11,03,14,27,387.00
2016,11,03,14,28,385.50
2016,11,03,14,29,383.20
2016,11,03,14,30,380.40
2016,11,03,14,31,377.30
2016,11,03,14,32,376.00
2016,11,03,14,33,374.80
2016,11,03,14,34,373.20
2016,11,03,14,35,371.10
2016,11,03,14,36,368.70
2016,11,03,14,37,366.70
2016,11,03,14,38,365.00
2016,11,03,14,39,364.00
2016,11,03,14,40,362.40
2016,11,03,14,41,360.20
2016,11,03,14,42,359.80
2016,11,03,14,43,358.30
2016,11,03,14,44,357.00
2016,11,03,14,45,355.70
2016,11,03,14,46,353.30
2016,11,03,14,47,353.00
2016,11,03,14,48,352.30
2016,11,03,14,49,350.00
2016,11,03,14,50,348.90
2016,11,03,14,51,346.70
2016,11,03,14,52,346.00
2016,11,03,14,53,345.00
2016,11,03,14,54,344.50
2016,11,03,14,55,342.20
2016,11,03,14,56,339.90
2016,11,03,14,57,339.00
2016,11,03,14,58,338.20
2016,11,03,14,59,335.70
2016,11,03,15,00,334.00
2016,11,03,15,01,333.20
2016,11,03,15,02,330.80
2016,11,03,15,03,330.00
2016,11,03,15,04,329.10
2016,11,03,15,05,326.70
2016,11,03,15,06,325.00
2016,11,03,15,07,324.10
2016,11,03,15,08,323.00
2016,11,03,15,09,320.80
2016,11,03,15,10,319.90
2016,11,03,15,11,317.70
2016,11,03,15,12,316.00
2016,11,03,15,13,314.60
2016,11,03,15,14,311.80
2016,11,03,15,15,311.00
2016,11,03,15,16,308.30
2016,11,03,15,17,307.60
2016,11,03,15,18,305.30
2016,11,03,15,19,303.00
2016,11,03,15,20,301.40
2016,11,03,15,21,301.00
2016,11,03,15,22,297.30
2016,11,03,15,23,296.60
2016,11,03,15,24,294.60
2016,11,03,15,25,293.00
2016,11,03,15,26,290.70
2016,11,03,15,27,288.40
2016,11,03,15,28,286.90
2016,11,03,15,29,284.50
2016,11,03,15,30,283.00
2016,11,03,15,31,282.00
2016,11,03,15,32,279.70
2016,11,03,15,33,276.50
2016,11,03,15,34,275.50
2016,11,03,15,35,272.00
2016,11,03,15,36,271.60
2016,11,03,15,37,269.90
2016,11,03,15,38,267.60
2016,11,03,15,39,265.30
2016,11,03,15,40,262.00
2016,11,03,15,41,261.40
2016,11,03,15,42,259.10
2016,11,03,15,43,257.40
2016,11,03,15,44,255.50
2016,11,03,15,45,253.20
2016,11,03,15,46,250.90
2016,11,03,15,47,249.40
2016,11,03,15,48,247.10
2016,11,03,15,49,244.80
2016,11,03,15,50,243.30
2016,11,03,15,51,241.20
2016,11,03,15,52,238.60
2016,11,03,15,53,235.90
2016,11,03,15,54,227.80
2016,11,03,15,55,174.50
2016,11,03,15,56,101.50
2016,11,03,15,57,58.20
2016,11,03,15,58,51.80
2016,11,03,15,59,79.40
2016,11,03,16,00,104.00
2016,11,03,16,01,90.10
2016,11,03,16,02,82.10
2016,11,03,16,03,66.60
2016,11,03,16,04,44.70
2016,11,03,16,05,41.40
2016,11,03,16,06,43.00
2016,11,03,16,07,53.70
2016,11,03,16,08,69.10
2016,11,03,16,09,68.80
2016,11,03,16,10,52.00
2016,11,03,16,11,39.00
2016,11,03,16,12,36.80
2016,11,03,16,13,37.70
2016,11,03,16,14,43.30
2016,11,03,16,15,39.70
2016,11,03,16,16,34.50
2016,11,03,16,17,33.00
2016,11,03,16,18,34.10
2016,11,03,16,19,36.30
2016,11,03,16,20,41.20
2016,11,03,16,21,39.10
2016,11,03,16,22,33.00
2016,11,03,16,23,33.00
2016,11,03,16,24,34.10
2016,11,03,16,25,36.40
2016,11,03,16,26,39.60
2016,11,03,16,27,45.50
2016,11,03,16,28,40.00
2016,11,03,16,29,35.00
2016,11,03,16,30,43.50
2016,11,03,16,31,52.70
2016,11,03,16,32,39.40
2016,11,03,16,33,38.30
2016,11,03,16,34,73.30
2016,11,03,16,35,82.80
2016,11,03,16,36,62.00
2016,11,03,16,37,54.00
2016,11,03,16,38,40.90
2016,11,03,16,39,30.00
2016,11,03,16,40,31.10
2016,11,03,16,41,34.90
2016,11,03,16,42,37.00
2016,11,03,16,43,38.60
2016,11,03,16,44,35.70
2016,11,03,16,45,39.20
2016,11,03,16,46,40.00
2016,11,03,16,47,38.50
2016,11,03,16,48,41.60
2016,11,03,16,49,59.00
2016,11,03,16,50,81.90
2016,11,03,16,51,102.20
2016,11,03,16,52,107.40
2016,11,03,16,53,104.50
2016,11,03,16,54,102.70
2016,11,03,16,55,100.30
2016,11,03,16,56,96.90
2016,11,03,16,57,94.50
2016,11,03,16,58,92.10
2016,11,03,16,59,90.40
2016,11,03,17,00,88.60
2016,11,03,17,01,84.50
2016,11,03,17,02,82.70
2016,11,03,17,03,80.40
2016,11,03,17,04,78.10
2016,11,03,17,05,75.30
2016,11,03,17,06,72.60
2016,11,03,17,07,70.30
2016,11,03,17,08,68.60
2016,11,03,17,09,66.40
2016,11,03,17,10,64.10
2016,11,03,17,11,62.40
2016,11,03,17,12,60.50
2016,11,03,17,13,58.10
2016,11,03,17,14,55.60
2016,11,03,17,15,53.70
2016,11,03,17,16,52.00
2016,11,03,17,17,49.80
2016,11,03,17,18,47.50
2016,11,03,17,19,46.00
2016,11,03,17,20,43.60
2016,11,03,17,21,41.30
2016,11,03,17,22,39.50
2016,11,03,17,23,37.70
2016,11,03,17,24,35.40